Regional Weather Roundup
Issued by NWS

Home | Current Version | Previous Version | Graphics & Text | Print | Product List | Glossary On
Versions: 1 2 3 4 5 6 7 8 9 10 11 12 13 14 15 16 17 18 19 20 21 22 23 24 25 26 27 28 29 30 31 32 33 34 35 36 37 38 39 40 41 42 43 44 45 46 47 48 49 50
000
ASUS45 KSLC 280310
RWRUT

UTAH REGIONAL WEATHER ROUNDUP
NATIONAL WEATHER SERVICE SALT LAKE CITY UT
800 PM MST THU NOV 27 2014

UTZ001>011-023>025-280400-

NORTHERN UTAH

CITY           SKY/WX    TMP DP  RH WIND       PRES   REMARKS
BRIGHAM CITY   MOCLDY    42  33  69 NW5       30.15F
HILL AFB       CLOUDY    46  25  44 S12       30.15F
LOGAN          CLEAR     39  33  79 CALM      30.14F
OGDEN          CLOUDY    48  28  46 S12       30.13F
PROVO AIRPORT  CLOUDY    37  32  81 CALM      30.20F
SALT LAKE CITY CLOUDY    51  25  36 SE14      30.14F
VERNAL         CLOUDY    37  26  64 W3        30.24S
WENDOVER       MOCLDY    41  28  60 CALM      30.14F
HEBER CITY     CLOUDY    36  30  80 CALM      30.22F
WEST JORDAN    CLEAR     54  28  37 S9        30.16F

$$

UTZ012>022-026-027-280400-

SOUTHERN/CENTRAL UTAH

CITY           SKY/WX    TMP DP  RH WIND       PRES   REMARKS
BLANDING       MOCLDY    38  23  54 N7        30.41S WCI  33
BRYCE CANYON   MOCLDY    24  17  74 W7        30.38S WCI  16
CEDAR CITY     MOCLDY    44  14  29 SE9       30.26S
DELTA          CLOUDY    42  28  57 CALM      30.20F
MILFORD        CLOUDY    49  20  31 SW16      30.21F
MOAB/CYNLANDS  CLEAR     34  19  54 CALM      30.28F
PRICE          PTCLDY    34  23  64 N9        30.31F WCI  27
ST GEORGE      CLOUDY    48  18  29 CALM      30.23R
KANAB          MOCLDY    39  19  45 N6        30.32S WCI  35

$$

REGIONAL REPORTS     COLORADO/ARIZONA

CITY           SKY/WX    TMP DP  RH WIND       PRES   REMARKS
CRAIG, CO      PTCLDY    32  26  78 CALM      30.27F
GRAND JUNCTION PTCLDY    34  26  72 E3        30.29F
RIFLE          PTCLDY    33  27  78 CALM      30.33S
MONTROSE       PTCLDY    34  24  67 S8        30.34F WCI  27
CORTEZ         CLEAR     30  20  66 E3        30.36S
PAGE, AZ       MOCLDY    47  19  33 CALM      30.28S
GRAND CANYON   MOCLDY    32   9  38 CALM      30.36R
KINGMAN        MOCLDY    47  16  29 SE3       30.20F
FLAGSTAFF      MOCLDY    39  16  39 CALM      30.37F

$$

REGIONAL REPORTS    NEVADA/IDAHO/WYOMING

CITY           SKY/WX    TMP DP  RH WIND       PRES   REMARKS
LAS VEGAS, NV  MOCLDY    56  22  26 SW7       30.13S
ELY            CLOUDY    39  14  36 E3        30.26F
ELKO           CLOUDY    43  32  65 CALM      30.15F
POCATELLO, ID  CLEAR     51  24  34 S10       30.07F
BURLEY         CLOUDY    49  32  52 SW10      30.05F
EVANSTON, WY   MOCLDY    42  20  41 SW10      30.23F
ROCK SPRINGS   PTCLDY    38  22  52 SW14      30.18F WCI  30

$$



USA.gov is the U.S. government's official web portal to all federal, state and local government web resources and services.